Location: Round Knob
(37.2473°N, 88.7376°W)
Time: 06:14:41
(UTC+00:00)

Hubble Space Telescope - Pass Details

Date: 20 September 2021
Orbit: 535 x 538 km, 28.5° (Epoch: 20 October)

Event Time Altitude Azimuth Distance (km) Brightness Sun altitude
Rises 01:15:08 0° 252° (WSW) 2,670 5.3 -16.4°
Reaches altitude 10° 01:19:05 10° 215° (SW) 1,778 3.7 -17.2°
Maximum altitude 01:20:08 11° 200° (SSW) 1,724 3.4 -17.4°
Drops below altitude 10° 01:21:11 10° 185° (S) 1,777 3.3 -17.6°
Enters shadow 01:22:00 - 175° (S) 1,885 3.3 -17.7°
